Paynesville, MN

10:01 PM CST on November 21, 2017 (GMT -0600)
Paynesville

Weather History for KPEX - June, 2014

Change the Weather History Date:

Sunday, June 8, 2014

  Actual Average (KLJF) Record (KLJF)
Temperature  
Mean Temperature 53 °F -  
Max Temperature 66 °F 78 °F 94 °F (1976)
Min Temperature 40 °F 54 °F 8 °F (1999)
Degree Days  
Heating Degree Days 12    
Growing Degree Days 3 (Base 50)    
Moisture  
Dew Point 43 °F    
Average Humidity 68    
Maximum Humidity 100    
Minimum Humidity 35    
Precipitation  
Precipitation 0.00 in - - ()
Sea Level Pressure  
Sea Level Pressure 30.10 in    
Wind  
Wind Speed 2 mph (ESE)    
Max Wind Speed 7 mph    
Max Gust Speed -    
Visibility 8 miles    
Events      
Averages and records for this station are not official NWS values.
T = Trace of Precipitation, MM = Missing Value Source: NWS Daily Summary

Daily Weather History Graph

Daily Weather History Graph

Search for Another Location

Airport or City:

Trip Planner

Search our weather history database for the weather conditions in past years. The results will help you decide how hot, cold, wet, or windy it might be!

Date:

Astronomy

Jun. 08, 2014 Rise Set
Actual Time 5:31 AM CDT 9:05 PM CDT
Civil Twilight 4:53 AM CDT 9:42 PM CDT
Nautical Twilight 4:04 AM CDT 10:32 PM CDT
Astronomical Twilight 2:59 AM CDT 11:37 PM CDT
Moon 4:12 PM CDT (6/8) 2:38 AM CDT (6/8)
Length of Visible Light 16h 48m
Length of Day
15h 34m
Waxing Gibbous, 77% of the Moon is Illuminated
Jun 8
Waxing Gibbous
Jun 12
Full
Jun 19
Last Quarter
Jun 27
New
Jul 5
First Quarter

Hourly Weather History & Observations

Time (CDT) Temp. Windchill Dew Point Humidity Pressure Visibility Wind Dir Wind Speed Gust Speed Precip Events Conditions
12:12 AM 45.5 °F 43.2 °F 45.5 °F 100% 30.09 in 10.0 mi SSW 4.6 mph - N/A   Clear
12:32 AM 45.7 °F - 45.9 °F 100% 30.10 in 10.0 mi Calm Calm - N/A   Clear
12:52 AM 46.6 °F - 46.8 °F 100% 30.09 in 10.0 mi SSW 3.5 mph - N/A   Clear
1:12 AM 46.4 °F - 46.6 °F 100% 30.09 in 10.0 mi Calm Calm - N/A   Clear
1:32 AM 46.4 °F - 46.2 °F 99% 30.09 in 10.0 mi Calm Calm - N/A   Clear
1:51 AM 46.4 °F - 46.4 °F 100% 30.10 in 10.0 mi Calm Calm - N/A   Clear
2:12 AM 44.8 °F - 44.8 °F 100% 30.10 in 10.0 mi Calm Calm - N/A   Clear
2:32 AM 43.9 °F 42.3 °F 44.1 °F 100% 30.09 in 7.0 mi SSW 3.5 mph - N/A   Clear
2:52 AM 45.0 °F - 45.1 °F 100% 30.10 in 10.0 mi Calm Calm - N/A   Clear
3:12 AM 43.3 °F 40.7 °F 43.5 °F 100% 30.10 in 7.0 mi South 4.6 mph - N/A   Clear
3:32 AM - - - N/A% 30.10 in 10.0 mi SSW 3.5 mph - N/A   Clear
3:52 AM 42.8 °F - 43.0 °F 100% 30.11 in 7.0 mi Calm Calm - N/A   Clear
4:12 AM 42.8 °F - 42.8 °F 100% 30.11 in 7.0 mi Calm Calm - N/A   Clear
4:32 AM 43.9 °F - 44.1 °F 100% 30.11 in 7.0 mi Calm Calm - N/A   Clear
4:52 AM 43.0 °F - 43.2 °F 100% 30.11 in 2.5 mi Calm Calm - N/A   Clear
5:12 AM 41.4 °F - 41.5 °F 100% 30.11 in 10.0 mi Calm Calm - N/A   Clear
5:32 AM - - - N/A% 30.11 in 4.0 mi Calm Calm - N/A   Clear
5:52 AM 40.6 °F 38.6 °F 40.8 °F 100% 30.11 in 3.0 mi SW 3.5 mph - N/A   Clear
6:12 AM 41.9 °F - 41.9 °F 100% 30.11 in 10.0 mi Calm Calm - N/A   Clear
6:32 AM 43.2 °F - 43.3 °F 100% 30.11 in 10.0 mi Calm Calm - N/A   Clear
6:52 AM 45.7 °F - 45.9 °F 100% 30.11 in 10.0 mi Calm Calm - N/A   Clear
7:12 AM 47.7 °F - 47.8 °F 100% 30.11 in 10.0 mi Calm Calm - N/A   Clear
7:32 AM 50.4 °F - 49.5 °F 97% 30.12 in 10.0 mi Calm Calm - N/A   Clear
7:52 AM 52.2 °F - 50.0 °F 92% 30.12 in 10.0 mi Calm Calm - N/A   Clear
8:12 AM 54.1 °F - 50.5 °F 88% 30.14 in 10.0 mi Calm Calm - N/A   Clear
8:32 AM 55.9 °F - 51.3 °F 84% 30.14 in 10.0 mi Calm Calm - N/A   Clear
8:51 AM 58.1 °F - 50.5 °F 76% 30.14 in 10.0 mi Calm Calm - N/A   Clear
9:12 AM 60.3 °F - 46.8 °F 61% 30.14 in 10.0 mi ENE 3.5 mph - N/A   Clear
9:32 AM 61.9 °F - 43.5 °F 51% 30.14 in 10.0 mi NE 5.8 mph - N/A   Clear
9:52 AM 62.2 °F - 42.3 °F 48% 30.14 in 10.0 mi ESE 4.6 mph - N/A   Clear
1:12 PM 66.0 °F - 40.1 °F 39% 30.12 in 10.0 mi ENE 6.9 mph - N/A   Scattered Clouds
1:32 PM 65.3 °F - 37.9 °F 36% 30.12 in 7.0 mi East 4.6 mph - N/A   Clear
1:52 PM 65.7 °F - 38.1 °F 36% 30.11 in 5.0 mi East 3.5 mph - N/A   Haze
2:12 PM 65.7 °F - 37.0 °F 35% 30.11 in 7.0 mi NNW 3.5 mph - N/A   Clear
2:32 PM 65.3 °F - 37.0 °F 35% 30.11 in 7.0 mi NE 3.5 mph - N/A   Clear
2:52 PM 65.5 °F - 37.4 °F 35% 30.11 in 7.0 mi Calm Calm - N/A   Clear
3:12 PM 65.8 °F - 37.8 °F 36% 30.10 in 7.0 mi Calm Calm - N/A   Clear
3:31 PM 65.7 °F - 39.7 °F 39% 30.10 in 7.0 mi NE 6.9 mph - N/A   Clear
3:52 PM 66.2 °F - 38.3 °F 36% 30.10 in 7.0 mi NE 4.6 mph - N/A   Clear
4:12 PM 65.5 °F - 37.4 °F 35% 30.10 in 7.0 mi East 3.5 mph - N/A   Clear
4:32 PM 65.3 °F - 38.1 °F 37% 30.09 in 10.0 mi Calm Calm - N/A   Clear
4:52 PM 65.7 °F - 38.3 °F 37% 30.09 in 7.0 mi Calm Calm - N/A   Clear
5:12 PM 66.0 °F - 39.4 °F 38% 30.08 in 7.0 mi SE 4.6 mph - N/A   Clear
5:32 PM 65.5 °F - 40.6 °F 40% 30.07 in 7.0 mi Calm Calm - N/A   Clear
5:52 PM 65.7 °F - 39.2 °F 38% 30.07 in 7.0 mi ESE 3.5 mph - N/A   Clear
6:12 PM 65.7 °F - 38.5 °F 37% 30.07 in 7.0 mi Calm Calm - N/A   Clear
6:32 PM 65.5 °F - 39.0 °F 38% 30.07 in 10.0 mi Calm Calm - N/A   Clear
6:51 PM 64.9 °F - 40.5 °F 41% 30.07 in 7.0 mi SE 3.5 mph - N/A   Clear
7:12 PM 64.8 °F - 40.6 °F 41% 30.06 in 7.0 mi Calm Calm - N/A   Clear
7:32 PM 64.8 °F - 41.2 °F 42% 30.06 in 7.0 mi East 3.5 mph - N/A   Clear
7:52 PM 64.2 °F - 42.1 °F 44% 30.06 in 7.0 mi East 3.5 mph - N/A   Clear
8:12 PM 64.0 °F - 40.8 °F 43% 30.06 in 7.0 mi Calm Calm - N/A   Clear
8:32 PM 63.5 °F - 41.0 °F 44% 30.06 in 7.0 mi Calm Calm - N/A   Clear
8:51 PM 63.0 °F - 41.5 °F 45% 30.06 in 7.0 mi East 3.5 mph - N/A   Clear
9:32 PM 60.8 °F - 44.6 °F 55% 30.07 in 10.0 mi ESE 3.5 mph - N/A   Clear
9:52 PM 59.7 °F - 45.5 °F 59% 30.07 in 7.0 mi ESE 4.6 mph - N/A   Clear
10:12 PM 60.1 °F - 45.5 °F 59% 30.07 in 10.0 mi ESE 3.5 mph - N/A   Clear
10:32 PM 59.5 °F - 46.6 °F 62% 30.08 in 7.0 mi East 3.5 mph - N/A   Clear
10:52 PM 58.5 °F - 46.4 °F 64% 30.08 in 10.0 mi ESE 3.5 mph - N/A   Clear
11:12 PM 58.1 °F - 47.1 °F 67% 30.07 in 10.0 mi ESE 3.5 mph - N/A   Clear
11:32 PM 57.6 °F - 47.8 °F 70% 30.07 in 10.0 mi Calm Calm - N/A   Clear
11:52 PM 54.0 °F - 51.3 °F 91% 30.07 in 7.0 mi Calm Calm - N/A   Clear